Location: Berg
(47.2344°N, 9.5296°E)
Time: 16:38:20
(UTC+00:00)

Cosmos 1937 Rocket - Pass Details

Date: 24 January 2021
Orbit: 746 x 780 km, 74.0° (Epoch: 01 March)

Event Time Altitude Azimuth Distance (km) Brightness Sun altitude
Rises 18:00:14 0° 190° (S) 3,242 7.0 -18.2°
Reaches altitude 10° 18:02:37 10° 187° (S) 2,322 6.2 -18.6°
Maximum altitude 18:07:49 63° 108° (ESE) 870 3.5 -19.5°
Enters shadow 18:10:46 26° 35° (NE) 1,499 4.6 -20.0°
